Welcome to the New NWS' Forecast!
Most changes are behind the scenes, but click here for differences you might notice.
Latest weather observations around

Harrison, Boone County Airport (KHRO)

Using English Units (Switch to International System of Units)
Date/ Time (CDT) Wind (mph) Vis. (mi) Weather Sky Cond. Temp (°F) Rel. Humidity Wind Chill (°F) Heat Index (°F) Pressure Precip. (in)
Air Dwpt 6 hour Altimeter (inHg) Sea level (inHg) 1 hr 3 hr 6 hr
Max Min
May 24 21:53 WNW 3 10 Clear CLR 51 50     96%     29.71 29.69   0  
May 24 20:53 W 3 10 Mostly Cloudy FEW050 BKN085 52 52     100%     29.7 29.69      
May 24 19:53 NNW 6 10 Cloudy BKN060 OVC085 54 52     93%     29.7 29.68 0    
May 24 18:53 W 7 10 Mostly Cloudy SCT042 SCT048 BKN060 56 52     87%     29.68 29.67 0   0
May 24 17:53 WNW 7 10 Cloudy SCT048 BKN060 OVC075 55 51     86%     29.69 29.67 0    
May 24 16:53 WNW 3 10 Cloudy SCT040 BKN055 OVC070 58 47     67%     29.67 29.65      
May 24 15:53 NNW 8 10 Cloudy SCT049 BKN060 OVC075 58 49     72%     29.68 29.66 0 0  
May 24 14:53 NW 14 10 Cloudy OVC070 63 46     54%     29.68 29.65      
May 24 13:53 WNW 13 10 Cloudy SCT034 BKN043 OVC070 57 45     64%     29.68 29.67      
May 24 12:53 NW 11 10 Cloudy FEW037 SCT049 OVC070 59 45     60%     29.68 29.66      
May 24 11:53 NNW 14 10 Mostly Cloudy FEW035 BKN055 61 47     60%     29.68 29.66      
May 24 11:34 WNW 9 10 Mostly Cloudy FEW029 BKN050 BKN060 59 46     62%     29.68        
May 24 11:27 WNW 9 10 Mostly Cloudy BKN029 BKN050 57 45     64%     29.69        
May 24 10:01 NW 11 10 Mostly Cloudy FEW018 SCT028 BKN040 56 49     77%     29.69        
May 24 09:07 NW 10 10 Cloudy BKN015 BKN021 OVC085 54 49     83%     29.69        
May 24 08:53 WNW 11 10 Cloudy BKN013 BKN021 OVC090 56 50     80%     29.69 29.67      
May 24 08:19 WNW 9 10 Cloudy BKN011 OVC019 53 50     89%     29.69        
May 24 07:53 WNW 6 10 Cloudy FEW010 OVC019 52 50     93%     29.7 29.68      
May 24 07:32 NW 6 10 Cloudy SCT009 BKN017 OVC055 52 50     93%     29.7        
May 24 06:53 WNW 7 10 Mostly Cloudy FEW009 SCT016 BKN033 50 49     96% 47   29.69 29.67      
May 24 06:31 WNW 8 10 Cloudy FEW009 BKN031 OVC041 50 49     96% 47   29.69        
May 24 05:53 WNW 7 10 Mostly Cloudy BKN040 BKN055 50 49     96% 47   29.68 29.67      
May 24 04:53 WNW 7 10 Cloudy BKN035 OVC048 51 48     89%     29.69 29.67      
May 24 03:53 WNW 6 10 Cloudy BKN038 OVC048 52 48     86%     29.7 29.68      
May 24 02:53 WNW 6 10 Mostly Cloudy BKN060 52 48     86%     29.71 29.69      
May 24 01:53 W 7 10 Mostly Clear FEW055 53 49     86%     29.73 29.7      
May 24 00:53 W 7 10 Partly Cloudy SCT110 53 49     86%     29.74 29.72      
May 23 23:53 W 7 10 Clear CLR 54 51     90%     29.76 29.74      
May 23 22:53 WNW 5 10 Clear CLR 54 52     93%     29.77 29.75      
May 23 21:53 W 3 10 Clear CLR 56 53     90%     29.78 29.75      
May 23 20:53 W 5 10 Clear CLR 57 55     93%     29.77 29.75      
May 23 19:53 Calm 10 Mostly Clear FEW080 58 55     90%     29.77 29.75      
May 23 18:53 NW 8 10 Partly Cloudy FEW090 SCT120 60 57     90%     29.77 29.75 0   0
May 23 17:53 WNW 9 10 Light Rain FEW041 SCT090 BKN110 60 57     90%     29.78 29.75 0    
May 23 16:53 WNW 6 10 Cloudy BKN075 OVC090 61 58     90%     29.79 29.76 0    
May 23 15:53 W 6 6 Light Rain and Fog/Mist FEW030 SCT044 OVC070 60 58     93%     29.79 29.77 0 0  
May 23 14:53 W 9 6 Rain SCT065 OVC080 65 53     65%     29.79 29.77 0    
May 23 13:53 NW 11 10 Cloudy BKN080 OVC095 67 55     66%     29.79 29.77      
May 23 12:53 NW 8 10 Cloudy FEW032 BKN070 OVC080 68 55     63%     29.81 29.78      
May 23 11:53 WNW 10 10 Partly Cloudy SCT026 69 57     65%     29.82 29.8      
May 23 10:53 WNW 8 10 Partly Cloudy FEW020 SCT049 67 57     71%     29.83 29.8      
May 23 09:53 WNW 9 10 Mostly Cloudy FEW017 SCT026 BKN032 65 57     76%     29.83 29.8      
May 23 08:53 WNW 7 10 Mostly Cloudy BKN100 61 57     87%     29.84 29.81      
May 23 07:53 5 10 Cloudy FEW060 OVC090 60 57     90%     29.85 29.82      
May 23 06:53 W 5 10 Cloudy SCT060 OVC100 60 55     83%     29.85 29.82      
May 23 05:53 WNW 6 10 Cloudy OVC036 60 54     80%     29.85 29.82      
May 23 04:53 W 7 10 Cloudy OVC060 60 53     78%     29.85 29.82      
May 23 03:53 W 5 10 Cloudy SCT060 OVC075 59 53     81%     29.86 29.83      
May 23 02:53 NW 3 10 Mostly Cloudy BKN060 BKN070 BKN090 58 54     87%     29.87 29.84      
May 23 01:53 SE 3 10 Mostly Clear FEW060 57 53     87%     29.89 29.86      
May 23 00:53 SE 5 10 Clear CLR 57 53     87%     29.91 29.88      
May 22 23:53 SE 6 10 Clear CLR 59 54     83%     29.93 29.9      
May 22 22:53 SE 3 10 Clear CLR 61 52     72%     29.94 29.91      
May 22 21:53 5 10 Clear CLR 60 52     75%     29.96 29.93      
May 22 20:53 SE 6 10 Clear CLR 64 52     65%     29.94 29.92      
May 22 19:53 E 5 10 Partly Cloudy SCT100 68 50     53%     29.95 29.93      
May 22 18:53 E 7 10 Mostly Cloudy BKN100 70 49     47%     29.96 29.93      
May 22 17:53 E 6 10 Clear CLR 73 47     39%   72 29.97 29.95      
May 22 16:53 E 9 10 Clear CLR 72 46     40%   71 29.99 29.96      
May 22 15:53 SSE 10 10 Clear CLR 72 47     41%   71 30.01 29.98      
May 22 14:53 3 10 Clear CLR 72 48     43%   71 30.04 30.01      
May 22 13:53 SE 9 10 Clear CLR 72 48     43%   71 30.07 30.04      
May 22 12:53 SE 13 10 Clear CLR 72 47     41%   71 30.09 30.07      
May 22 11:53 ESE 9 10 Clear CLR 69 48     47%     30.12 30.09      
May 22 10:53 S 13 10 Clear CLR 67 49     52%     30.14 30.12      
May 22 09:53 SSE 11 10 Clear CLR 64 48     56%     30.15 30.14      
May 22 08:53 SE 6 10 Clear CLR 58 52     81%     30.16 30.14      
May 22 06:53 SSE 3 10 Clear CLR 51 50     96%     30.16 30.14      
May 22 05:53 Calm 10 Clear CLR 52 50     93%     30.14 30.12      
May 22 04:53 Calm 10 Clear CLR 52 48     86%     30.15 30.13      
May 22 03:53 Calm 10 Clear CLR 53 49     86%     30.14 30.12      
May 22 02:53 S 3 10 Clear CLR 51 49     92%     30.15 30.13      
May 22 01:53 Calm 10 Clear CLR 52 50     93%     30.15 30.13      
May 22 00:53 Calm 10 Clear CLR 54 50     86%     30.17 30.15      
May 21 23:53 Calm 10 Clear CLR 55 49     80%     30.18 30.16      
May 21 22:53 W 5 10 Clear CLR 54 50     86%     30.18 30.17      
May 21 21:53 WNW 5 10 Clear CLR 56 51     84%     30.16 30.14      
May 21 20:53 NNW 5 10 Clear CLR 59 48     67%     30.15 30.13      
May 21 19:53 Calm 10 Clear CLR 63 48     58%     30.15 30.14      
May 21 18:53 NW 6 10 Clear CLR 67 46     47%     30.15 30.13      
May 21 17:53 NW 9 10 Clear CLR 70 45     41%     30.14 30.12      
May 21 16:53 NNW 8 10 Clear CLR 71 45     39%   70 30.12 30.1      
May 21 15:53 NW 9 10 Clear CLR 70 40     33%     30.15 30.13      
May 21 14:53 7 10 Clear CLR 69 41     36%     30.16 30.14      
May 21 13:53 NW 11 10 Clear CLR 67 42     40%     30.17 30.15      
May 21 12:53 WNW 7 10 Clear CLR 67 45     45%     30.18 30.16      
May 21 11:53   10 Clear CLR 63 44     50%     30.18 30.16      
May 21 10:53 NW 13 10 Clear CLR 60 45     57%     30.19 30.16      
May 21 09:53 WNW 11 10 Clear CLR 57 46     67%     30.16 30.15      
May 21 08:53 WNW 13 10 Clear CLR 55 46     72%     30.16 30.14      
May 21 07:53 WNW 11 10 Clear CLR 55 49     80%     30.14 30.13      
May 21 06:53 WSW 3 10 Clear CLR 52 48     86%     30.13 30.12      
May 21 05:53 SW 3 10 Clear CLR 51 46     83%     30.11 30.09      
May 21 04:53 SSW 3 10 Clear CLR 50 48     93% 49   30.09 30.07      
May 21 03:53 Calm 10 Clear CLR 51 50     96%     30.08 30.05      
May 21 02:53 W 5 10 Clear CLR 53 50     89%     30.07 30.04      
May 21 01:53 WNW 6 10 Clear CLR 55 52     89%     30.07 30.04      
May 21 00:53 WNW 7 10 Clear CLR 57 54     89%     30.06 30.04     0
May 20 23:53 WNW 6 10 Clear CLR 59 56     90%     30.06 30.03      
May 20 22:53 W 5 10 Clear CLR 59 58     96%     30.04 30.02      
May 20 21:53 W 8 10 Mostly Clear FEW070 60 59     96%     30.02 30   0  
May 20 20:53 Calm 10 Partly Cloudy SCT080 61 60     97%     30 29.98      
May 20 19:53 WNW 6 10 Cloudy BKN041 OVC049 63 62     97%     29.99 29.96 0    
May 20 19:38 W 9 10 Cloudy FEW019 BKN034 OVC041 64 62     93%     29.98   0    
May 20 19:13 WNW 7 9 Cloudy SCT013 OVC018 64 63     96%     29.98   0    
May 20 18:53 NW 6 9 Light Rain SCT007 BKN014 OVC019 64 63     96%     29.97 29.94 0   0
May 20 18:33 WNW 9 10 Light Rain SCT007 BKN017 OVC025 66 64     93%     29.97   0    
May 20 17:53 WNW 8 10 Light Rain SCT015 BKN020 OVC029 67 66     97%     29.93 29.91 0    
May 20 17:40 WNW 10 2.5 Light Rain FEW017 BKN026 OVC060 70 64     81%     29.92   0    
May 20 16:53 WSW 8 10 Cloudy BKN034 BKN042 OVC055 72 64     76%   72 29.92 29.89      
May 20 15:53 SW 10 10 Cloudy OVC040 74 62     66%   74 29.92 29.88      
May 20 13:53 SSW 5 10 Mostly Cloudy FEW028 BKN034 BKN041 73 64     73%   73 29.93 29.9      
May 20 13:51 SW 7 10 Mostly Cloudy SCT028 BKN036 73 64     73%   74 29.93        
May 20 12:53 S 8 10 Mostly Cloudy BKN025 BKN034 71 63     76%   71 29.94 29.91     0
May 20 11:53 SSE 8 10 Mostly Clear FEW014 69 64     84%     29.94 29.91      
May 20 10:53 SSE 10 10 Partly Cloudy SCT004 64 63     96%     29.94 29.91      
May 20 10:43 SE 8 10 Mostly Cloudy BKN004 63 62     97%     29.93        
May 20 09:53 SE 7 10 Mostly Cloudy BKN005 61 61     100%     29.93 29.9 0 0  
May 20 09:04   9 Light Rain BKN004 OVC100 61 61     100%     29.92   0    
May 20 08:53 SSE 15 5 Light Rain and Fog/Mist BKN005 BKN015 OVC100 60 60     100%     29.95 29.92 0    
May 20 08:33   8 Light Rain BKN006 OVC100 60 60     100%     29.93   0    
May 20 07:57 SSE 14 7 Rain BKN004 OVC100 60 60     100%     29.92   0    
May 20 07:53 SSE 11 8 Light Rain SCT004 SCT009 OVC110 60 60     100%     29.93 29.9 0    
May 20 07:45 SE 11 7 Rain FEW009 OVC100 60 60     100%     29.92   0    
May 20 07:37 SE 11 8 Rain FEW003 BKN009 OVC110 60 60     100%     29.92   0    
May 20 07:24 SSE 10 8 Rain SCT003 BKN010 OVC110 60 60     100%     29.94   0    
May 20 07:19 SSE 11 7 Rain BKN004 BKN008 OVC110 60 60     100%     29.94   0    
May 20 06:53 SSE 10 6 Light Rain and Fog/Mist BKN002 OVC007 60 60     100%     29.93 29.9 0   1
May 20 06:41 SSE 9 3 Light Rain and Fog/Mist BKN002 BKN009 OVC100 60 60     100%     29.93   0    
May 20 06:27 SE 7 6 Rain and Fog/Mist FEW003 SCT080 OVC100 60 60     100%     29.93   0    
May 20 05:53 S 3 3 Rain and Fog/Mist FEW080 OVC100 60 60     100%     29.94 29.9 0    
May 20 05:35 Calm 5 Rain and Fog/Mist FEW004 BKN075 OVC100 60 60     100%     29.95   0    
May 20 05:19 S 3 2 Heavy Rain and Fog/Mist FEW006 BKN045 OVC070 60 60     100%     29.97   0    
May 20 05:15 S 3 3 Heavy Rain and Fog/Mist FEW006 BKN050 OVC070 61 61     100%     29.97   0    
May 20 05:07 SSE 9 3 Heavy Rain and Fog/Mist SCT055 OVC070 61 61     100%     29.98   0    
May 20 04:53 Calm 4 Thunderstorms and Rain and Fog/Mist BKN065 OVC090 60 60     100%     29.96 29.92 0    
May 20 04:41 SSE 5 4 Thunderstorms and Heavy Rain and Fog/Mist BKN060 BKN080 OVC095 60 60     100%     29.96   0    
May 20 04:20 ESE 6 4 Rain and Fog/Mist FEW055 BKN070 OVC095 61 61     100%     29.95   0    
May 20 03:53 ESE 3 3 Rain and Fog/Mist FEW011 SCT030 OVC055 61 61     100%     29.96 29.93 0 0  
May 20 03:50 Calm 3 Heavy Rain and Fog/Mist FEW011 SCT030 OVC055 61 61     100%     29.97   0    
May 20 03:42 3 2.5 Heavy Rain and Fog/Mist FEW013 BKN050 OVC080 61 61     100%     29.97   0    
May 20 03:33 SSW 5 3 Heavy Rain and Fog/Mist FEW013 BKN060 OVC080 61 61     100%     29.98   0    
May 20 03:20 SSW 5 10 Light Rain BKN070 OVC080 61 61     100%     29.96   0    
May 20 02:53 Calm 5 Rain and Fog/Mist FEW060 BKN075 OVC100 61 61     100%     29.94 29.9 0    
May 20 02:38 NNW 3 6 Light Rain and Fog/Mist FEW020 BKN075 OVC110 61 61     100%     29.93   0    
May 20 02:24 NW 10 5 Thunderstorms and Heavy Rain and Fog/Mist FEW022 BKN070 OVC085 61 60     97%     29.9   0    
May 20 02:08 WNW 6 4 Rain and Fog/Mist SCT070 BKN080 OVC100 61 61     100%     29.93   0    
May 20 01:53 NW 9 6 Thunderstorms and Heavy Rain and Fog/Mist SCT080 OVC100 61 61     100%     29.9 29.86 0    
May 20 01:03 NW 10 4 Thunderstorms and Heavy Rain and Fog/Mist FEW023 BKN046 OVC085 61 60     97%     29.94   0    
May 20 00:53   2 Thunderstorms and Heavy Rain and Fog/Mist FEW009 BKN039 OVC065 61 60     97%     29.93 29.9 1   2
May 20 00:46   4 Thunderstorms and Rain and Fog/Mist FEW009 BKN039 OVC085 61 61     100%     29.93   1    
May 20 00:38   2 Thunderstorms and Heavy Rain and Fog/Mist FEW006 BKN031 OVC085 61 61     100%     29.92   1    
May 20 00:29   1.75 Thunderstorms and Heavy Rain and Fog/Mist FEW006 BKN017 OVC032 62 61     96%     29.93   1    
May 20 00:23 WNW 11 2 Thunderstorms and Rain and Fog/Mist FEW006 BKN013 OVC033 62 61     96%     29.97   1    
May 20 00:08 NW 11 0.75 Thunderstorms and Heavy Rain and Fog/Mist FEW005 BKN010 OVC021 63 62     97%     29.92   0    
May 20 00:03 3 2.5 Thunderstorms and Heavy Rain and Fog/Mist SCT005 BKN010 OVC021 63 62     97%     29.95   0    
May 19 23:53 WNW 10 3 Thunderstorms and Rain and Fog/Mist SCT005 BKN009 OVC022 64 63     96%     29.92 29.89 0    
May 19 23:49 NW 15 2 Thunderstorms and Heavy Rain and Fog/Mist BKN005 BKN009 OVC018 64 64     100%     29.91   0    
May 19 23:35 WNW 9 0.75 Thunderstorms and Heavy Rain and Fog/Mist OVC009 66 66     100%     29.91   0    
May 19 23:23 NNW 8 10 Thunderstorms OVC009 66 66     100%     29.89   0    
May 19 22:59 NW 5 10 Light Rain BKN009 BKN018 BKN120 66 65     96%     29.92   0    
May 19 22:53 NW 3 10 Light Rain SCT011 BKN018 BKN120 66 66     100%     29.92 29.89 0    
May 19 22:20 NNW 6 10 Partly Cloudy FEW018 SCT100 67 66     97%     29.91   0    
May 19 21:53 Calm 6 Rain and Fog/Mist BKN020 OVC027 67 67     100%     29.91 29.87 0 0  
May 19 21:43 Calm 10 Clear   68 66     93%     29.91   0    
May 19 21:33 Calm 10 Clear   68 66     93%     29.91   0    
May 19 21:10 ENE 3 10 Clear   68 66     93%     29.9   0    
May 19 20:53 ESE 7 10 Clear   68 66     93%     29.89 29.86 0    
May 19 20:30 3 8 Thunderstorms and Rain FEW025 FEW044 BKN100 69 68     96%     29.89   0    
May 19 20:07 NNE 3 10 Mostly Clear FEW030 70 68     93%     29.89        
May 19 19:53 NNE 3 10 Mostly Cloudy FEW015 BKN030 71 69     93%   72 29.89 29.86 0    
May 19 19:16 NNW 6 4 Light Rain and Fog/Mist FEW022 BKN030 OVC040 69 67     93%     29.89   0    
May 19 19:04 6 1.5 Heavy Rain and Fog/Mist FEW026 BKN035 BKN046 70 66     87%     29.9   0    
May 19 18:53 NW 6 10 Partly Cloudy FEW037 SCT048 71 65     81%   72 29.89 29.85      
May 19 17:53 Calm 10 Clear CLR 80 67     64%   82 29.9 29.86      
May 19 16:53 S 8 10 Mostly Cloudy SCT036 BKN046 80 67     64%   82 29.91 29.87      
May 19 15:53 SE 14 10 Mostly Cloudy SCT030 BKN038 BKN095 81 69     67%   84 29.91 29.88      
May 19 14:53 S 11 10 Mostly Clear FEW022 79 69     72%   80 29.93 29.89      
May 19 13:53 E 6 10 Mostly Cloudy FEW027 SCT033 BKN050 76 67     74%   77 29.95 29.92      
May 19 12:53 ESE 9 10 Cloudy SCT020 OVC041 73 65     76%   74 29.96 29.92     0
May 19 11:53 ESE 9 10 Cloudy OVC017 70 64     81%     29.98 29.93      
May 19 10:53 SE 7 10 Cloudy OVC024 68 63     84%     29.99 29.95      
May 19 10:24 SSE 7 10 Mostly Cloudy BKN025 67 62     84%     29.99        
May 19 09:53 SE 7 10 Mostly Clear FEW035 FEW048 68 62     81%     29.99 29.95   0  
May 19 09:14 SE 7 10 Mostly Clear FEW007 65 62     90%     29.99        
May 19 08:53 ESE 3 10 Mostly Clear FEW050 FEW120 64 62     93%     29.99 29.95 0    
May 19 08:11 NNW 5 9 Light Rain FEW013 BKN043 OVC060 61 61     100%     30.01   0    
May 19 07:53 NW 8 10 Light Rain FEW007 SCT015 OVC041 61 60     97%     30.03   0    
May 19 07:36 WNW 11 10 Cloudy SCT003 OVC039 61 60     97%     30.02   0    
May 19 07:26 NW 5 10 Cloudy BKN039 OVC050 61 60     97%     29.98   0    
May 19 07:11 NW 6 10 Light Rain SCT041 BKN050 OVC070 61 60     97%     29.97   0    
May 19 06:53 E 9 10 Cloudy BKN055 OVC070 61 60     97%     29.95 29.92     0
May 19 05:53 NNW 3 10 Mostly Cloudy BKN070 BKN090 60 59     96%     29.93 29.89      
May 19 04:53 S 8 10 Clear CLR 60 59     96%     29.87 29.83 0    
May 19 03:53 Calm 10 Clear   61 59     93%     29.9 29.86 0 0  
May 19 02:53 W 9 10 Light Rain FEW080 OVC110 62 60     93%     29.95 29.91 0    
May 19 02:35 W 13 8 Rain FEW080 OVC100 62 60     93%     29.98   0    
May 19 01:53 W 15 3 Thunderstorms and Heavy Rain and Fog/Mist FEW031 BKN048 OVC085 62 60     93%     29.95   0    
May 19 01:48 WSW 14 3 Thunderstorms and Heavy Rain and Fog/Mist FEW031 BKN048 OVC085 63 61     94%     29.96   0    
May 19 01:38 W 15 1.75 Thunderstorms and Heavy Rain and Fog/Mist FEW027 BKN035 OVC090 63 60     90%     29.94   0    
May 19 01:33 W 14 2.5 Thunderstorms and Heavy Rain SCT027 BKN034 OVC090 66 60     81%     29.93   0    
May 19 01:28   7 Thunderstorms and Rain FEW027 SCT036 BKN048 72 66     82%   73 29.94   0    
May 19 00:53 SSE 10 10 Clear CLR 73 70     90%   74 29.86 29.81 0   0
May 19 00:23 S 5 8 Mostly Cloudy FEW028 SCT037 BKN090 72 70     93%   73 29.89   0    
May 19 00:16 SSE 7 10 Light Rain FEW028 SCT034 BKN090 72 70     93%   73 29.89   0    
May 19 00:00 S 9 10 Thunderstorms and Rain BKN032 BKN055 OVC085 73 70     90%   74 29.9   0    
May 18 23:53 SSE 10 10 Light Rain SCT029 BKN043 OVC100 74 70     87%   75 29.9 29.85 0    
May 18 23:45 SE 6 6 Light Rain and Fog/Mist SCT029 BKN040 OVC080 73 70     90%   74 29.9   0    
May 18 23:12 SSE 7 10 Mostly Cloudy FEW028 BKN035 BKN045 74 69     85%   75 29.91        
May 18 22:53 SE 8 10 Mostly Cloudy BKN027 BKN036 74 69     85%   75 29.9 29.85      
May 18 22:46 SE 6 10 Cloudy BKN027 OVC036 74 69     85%   75 29.9        
May 18 21:53 SE 6 10 Mostly Cloudy FEW029 SCT039 BKN048 74 68     82%   75 29.87 29.83      
May 18 20:53 SE 7 10 Mostly Clear FEW032 74 68     82%   75 29.84 29.8      
May 18 19:53 SSE 10 10 Mostly Clear FEW037 76 67     74%   77 29.85 29.8      
May 18 18:53 SSE 13 10 Clear CLR 79 66     65%   80 29.84 29.8      
May 18 17:53 SSE 16 10 Clear CLR 82 66     58%   84 29.84 29.79      
May 18 16:53 S 11 10 Clear CLR 83 67     59%   86 29.86 29.82      
May 18 15:53 S 13 10 Mostly Clear FEW040 83 66     57%   85 29.87 29.83      
May 18 14:53 S 14 10 Clear CLR 84 66     55%   86 29.88 29.84      
May 18 13:53 S 14 10 Clear CLR 83 65     55%   85 29.89 29.85      
May 18 12:53 S 13 10 Mostly Clear FEW050 82 65     56%   84 29.9 29.86      
May 18 11:53 S 11 10 Mostly Clear FEW043 81 66     61%   83 29.91 29.86      
May 18 10:53 S 13 10 Mostly Clear FEW033 79 66     65%   80 29.9 29.85      
May 18 09:53 S 14 10 Mostly Clear FEW027 77 66     69%   78 29.9 29.85      
May 18 08:53 S 7 10 Clear CLR 75 68     79%   76 29.89 29.85      
May 18 07:53 SSE 11 10 Clear CLR 71 68     90%   72 29.87 29.83      
May 18 06:53 SSE 7 7 Clear CLR 67 66     97%     29.86 29.81      
May 18 05:53 S 5 9 Clear CLR 66 65     96%     29.84 29.8      
May 18 04:53 S 6 7 Clear CLR 65 65     100%     29.84 29.8      
May 18 03:53 SSE 5 8 Clear CLR 65 65     100%     29.84 29.79      
May 18 02:53 S 7 10 Clear CLR 68 65     90%     29.84 29.79      
May 18 01:53 S 5 10 Clear CLR 69 65     87%     29.83 29.79      
May 18 00:53 S 9 10 Clear CLR 69 65     87%     29.83 29.79      
May 17 23:53 S 8 10 Clear   70 65     84%     29.83 29.79      
May 17 22:53 S 7 10 Clear CLR 70 65     84%     29.82 29.78      
May 17 21:53 S 7 10 Clear CLR 70 66     87%     29.8 29.77      
May 17 20:53 S 9 10 Clear CLR 71 66     84%   72 29.78 29.74      
May 17 19:53 S 9 10 Clear CLR 73 65     76%   74 29.76 29.72      
May 17 18:53 S 15 10 Partly Cloudy SCT055 76 65     69%   76 29.74 29.7      
May 17 17:53 S 14 10 Mostly Cloudy FEW049 BKN060 77 64     64%   77 29.72 29.68      
May 17 16:53 S 15 10 Partly Cloudy FEW043 SCT055 77 62     60%   77 29.72 29.67      
May 17 15:53 S 15 10 Partly Cloudy SCT042 80 63     56%   81 29.71 29.66      
May 17 14:53   10 Clear CLR 78 61     56%   78 29.69 29.64      
May 17 13:53 S 20 10 Partly Cloudy and Windy SCT033 SCT041 77 63     62%   77 29.71 29.66      
May 17 12:53   10 Mostly Cloudy SCT028 BKN035 76 64     67%   76 29.73 29.68      
May 17 11:53   10 Cloudy BKN024 OVC031 72 63     73%   72 29.74 29.7      
May 17 10:53   10 Mostly Cloudy BKN022 BKN029 71 63     76%   71 29.73 29.7      
May 17 10:40   10 Mostly Cloudy SCT020 BKN027 70 63     78%     29.73        
May 17 09:53   10 Partly Cloudy SCT120 68 62     81%     29.65        
May 17 08:53   10 Mostly Cloudy BKN090 BKN110 68 60     76%     29.77 29.73      
May 17 07:53 S 8 10 Mostly Cloudy BKN055 69 59     70%     29.8 29.76      
May 17 06:53 S 15 10 Cloudy OVC110 68 58     70%     29.79 29.74      
May 17 05:53 S 14 10 Clear CLR 69 59     70%     29.76 29.71      
May 17 04:53 S 7 10 Mostly Cloudy BKN036 70 59     68%     29.78 29.73      
May 17 03:53 SSE 14 10 Partly Cloudy SCT034 70 60     71%     29.7 29.66      
May 17 02:53 SSE 17 10 Mostly Clear FEW036 70 60     71%     29.7 29.66      
May 17 01:53   10 Clear CLR 71 60     68%   71 29.73 29.68      
May 17 00:53   10 Clear CLR 72 60     66%   72 29.74 29.69      
May 16 23:53   10 Clear CLR 72 60     66%   72 29.76 29.71      
May 16 22:53 SSE 13 10 Clear CLR 71 60     68%   71 29.77 29.73      
May 16 21:53 SSE 15 10 Clear CLR 72 60     66%   72 29.79 29.74      
May 16 20:53 SE 11 10 Clear CLR 73 59     61%   73 29.79 29.75      
May 16 19:53 SSE 15 10 Clear CLR 75 59     57%   75 29.79 29.75      
May 16 18:53 SSE 16 10 Clear CLR 78 58     50%   78 29.8 29.76      
May 16 17:53 S 16 10 Clear CLR 80 57     45%   80 29.82 29.79      
May 16 16:53 S 15 10 Clear CLR 81 55     41%   81 29.84 29.8      
May 16 15:53 S 15 10 Clear CLR 82 56     41%   82 29.86 29.82      
May 16 14:53 S 15 10 Clear CLR 81 55     41%   81 29.88 29.84      
May 16 13:53 SSW 13 10 Clear CLR 80 55     42%   80 29.89 29.85      
May 16 12:53   10 Clear CLR 80 57     45%   80 29.91 29.87      
May 16 11:53   10 Clear CLR 79 56     45%   79 29.93 29.88      
May 16 10:53 S 11 10 Clear CLR 76 55     48%   75 29.94 29.9      
May 16 09:53 SSW 10 10 Clear CLR 74 57     56%   74 29.94 29.91      
May 16 08:53 S 7 10 Clear CLR 71 61     70%   71 29.94 29.9      
May 16 07:53 SSE 3 10 Clear CLR 66 60     81%     29.94 29.91      
May 16 06:53 Calm 10 Clear CLR 61 58     90%     29.93 29.89      
May 16 05:53 Calm 10 Clear CLR 57 56     96%     29.92 29.88      
May 16 04:53 SSE 8 10 Clear CLR 60 58     93%     29.91 29.88      
May 16 03:53 S 5 10 Clear CLR 63 59     87%     29.92 29.88      
May 16 02:53 S 7 10 Clear CLR 65 59     81%     29.92 29.88      
May 16 01:53 S 7 10 Clear CLR 65 59     81%     29.92 29.88      
May 16 00:53 SE 5 10 Clear CLR 64 59     84%     29.91 29.87      
May 15 23:53 S 6 10 Clear CLR 65 60     84%     29.92 29.88      
May 15 22:53 S 5 10 Clear CLR 66 61     84%     29.92 29.88      
May 15 21:53 SSE 6 10 Clear CLR 68 61     78%     29.92 29.88      
May 15 20:53 SSE 5 10 Clear CLR 69 60     73%     29.92 29.89      
May 15 19:53 S 8 10 Clear CLR 74 60     62%   74 29.92 29.89      
May 15 18:53 S 9 10 Clear   78 60     54%   78 29.92 29.89      
May 15 17:53 S 10 10 Clear CLR 81 59     47%   81 29.92 29.89      
May 15 16:53 SSE 10 10 Clear CLR 80 59     49%   81 29.93 29.89      
May 15 15:53 SSE 8 10 Clear CLR 83 59     44%   83 29.94 29.9      
May 15 14:53 7 10 Clear CLR 82 57     43%   82 29.95 29.91      
May 15 13:53 SSE 7 10 Clear CLR 81 59     47%   81 29.97 29.93      
May 15 12:53 5 10 Clear CLR 78 60     54%   78 29.99 29.96      
May 15 11:53 SSW 7 10 Clear CLR 78 61     56%   78 30 29.97      
May 15 10:53 SE 6 10 Clear CLR 75 60     60%   75 30.01 29.97      
May 15 09:53 SE 8 10 Clear CLR 71 60     68%   71 30 29.97      
May 15 08:53 SSE 8 10 Clear CLR 66 59     78%     30 29.97      
May 15 07:53 SE 7 10 Clear CLR 59 55     87%     29.98 29.95      
May 15 06:53 SE 5 10 Clear CLR 54 53     97%     29.97 29.94      
May 15 05:53 Calm 10 Clear CLR 56 53     90%     29.97 29.93      
May 15 04:53 SSE 3 10 Clear CLR 54 53     97%     29.98 29.94      
May 15 03:53 SE 3 10 Clear CLR 54 53     97%     29.97 29.94      
May 15 02:53 SE 3 10 Clear CLR 57 53     87%     29.96 29.92      
May 15 01:53 ESE 3 10 Clear CLR 57 52     83%     29.96 29.92      
May 14 23:53 Calm 10 Clear CLR 60 52     75%     29.96 29.92      
May 14 22:53 Calm 10 Clear CLR 62 52     70%     29.96 29.93      
May 14 21:53 Calm 10 Clear CLR 62 52     70%     29.95 29.92      
May 14 19:53 S 7 10 Clear CLR 70 53     55%     29.92 29.89      
May 14 18:53 S 10 10 Clear CLR 76 51     42%   75 29.92 29.89      
May 14 17:53 S 10 10 Clear CLR 78 50     37%   77 29.93 29.9      
May 14 16:53 SE 11 10 Clear CLR 79 52     39%   78 29.94 29.91      
May 14 15:53 SE 10 10 Clear CLR 78 53     42%   78 29.95 29.92      
May 14 14:53 SSE 8 10 Clear CLR 77 53     43%   76 29.97 29.94      
May 14 13:53 SSE 10 10 Clear CLR 76 53     45%   75 29.99 29.96      
May 14 12:53 SSE 10 10 Clear CLR 74 53     48%   73 30.01 29.98      
May 14 11:53   10 Clear CLR 73 53     50%   72 30.02 29.99      
May 14 10:53 S 8 10 Clear CLR 71 52     51%   70 30.03 30.01      
May 14 09:53 S 9 10 Clear CLR 69 51     53%     30.05 30.02      
May 14 08:53 S 6 10 Clear CLR 65 54     68%     30.04 30.01      
May 14 07:53 SSE 3 10 Clear CLR 57 53     87%     30.03 30.01      
May 14 06:53 Calm 10 Clear CLR 52 50     93%     30.02 29.99      
May 14 05:53 Calm 10 Clear CLR 51 49     92%     30 29.98      
May 14 04:53 Calm 10 Clear CLR 53 49     86%     29.99 29.96      
May 14 03:53 Calm 10 Clear CLR 52 49     89%     29.97 29.94      
May 14 02:53 SSW 3 10 Clear CLR 54 49     83%     29.96 29.93      
May 14 01:53 Calm 10 Clear CLR 54 50     86%     29.96 29.94      
May 14 00:53 Calm 10 Clear CLR 54 50     86%     29.97 29.94      
May 13 23:53 S 5 10 Clear CLR 56 51     84%     29.96 29.94      
May 13 22:53 SSW 3 10 Clear CLR 59 51     75%     29.95 29.93      
May 13 21:53 Calm 10 Clear CLR 59 52     78%     29.96 29.93      
May 13 20:53 S 3 10 Clear CLR 63 50     63%     29.95 29.92      
May 13 19:53 SSE 6 10 Clear CLR 66 51     59%     29.94 29.92      
May 13 18:53 SE 6 10 Clear CLR 72 49     44%   71 29.94 29.92      
May 13 17:53 S 8 10 Clear CLR 73 50     44%   72 29.96 29.94